Notices

What's New in latest Release from April 7th, 2021:

- Updated Glossary, including Speed of Maximum Gust, and Total Hourly Precipitation

- Updated national and regional climate services offices contacts and prices information

- Addition of station inventory lists for 1981-2010, 1971-2000, and 1961-1990 Normals.

If you haven't already, please take our survey and provide feedback about our website: https://eccc.sondage-survey.ca/f/LanguageSelection.aspx?s=442ca660-fcf1-47c0-95a9-59707d6fd709

Hourly Data Report for October 27, 2018

CORAL HARBOUR A
NUNAVUT
Current Station Operator: NAVCAN

64°11'36.000" N
83°21'34.000" W
62.20 m
2301002
71915
YZS

Download Data

Hourly Data (October 2018)
Hourly Data Report for October 27, 2018
TIME
LST
Temp Definition
°C
Dew Point Definition
°C
Rel Hum Definition
%
Precip. Amount Definition
mm

Wind Dir Definition
10's deg

Wind Spd Definition
km/h
Visibility Definition
km
Stn Press Definition
kPa
Hmdx Definition


Wind Chill Definition


Weather Definition


00:00 -11.8 -14.0 84   34 24 24.1 100.65   -21 Snow
01:00 -14.8 -17.1 82   33 15 24.1 100.63   -23 Snow
02:00 -15.4 -17.7 83   34 17 24.1 100.60   -24 Snow
03:00 -14.5 -16.7 83   35 19 24.1 100.56   -23 Snow
04:00 -14.1 -16.2 84   35 22 24.1 100.56   -23 Snow
05:00 -13.6 -15.4 87   33 17 24.1 100.54   -22 Snow
06:00 -12.7 -14.8 85   34 15 24.1 100.53   -20 Snow
07:00 -11.9 -14.3 82   35 19 24.1 100.51   -20 Snow
08:00 -12.1 -14.4 83   33 16 24.1 100.50   -20 Snow
09:00 -12.2 -14.4 84   35 14 24.1 100.53   -19 Snow
10:00 -11.6 -14.0 82   35 10 24.1 100.52   -17 Snow
11:00 -11.3 -14.1 80   35 4 24.1 100.52   -14 Snow
12:00 -10.4 -13.5 78   4 5 24.1 100.50   -13 Snow
13:00 -9.8 -12.4 81   7 8 19.3 100.51   -14 Snow
14:00 -9.4 -11.6 85   8 12 12.9 100.49   -15 Snow
15:00 -9.7 -11.4 87   8 18 4.8 100.47   -17 Snow
16:00 -9.5 -11.0 89   8 19 4.8 100.44   -17 Snow
17:00 -9.0 -10.3 90   9 25 3.2 100.41   -17 Snow
18:00 -7.9 -9.0 92   10 22 3.2 100.39   -16 Snow
19:00 -7.1 -8.2 92   10 22 1.6 100.35   -15 Snow
20:00 -6.5 -7.5 93   10 26 2.4 100.29   -14 Snow
21:00 -4.5 -5.2 95   13 24 2.4 100.24   -12 Snow
22:00 -2.9 -3.4 96   15 31 2.4 100.20   -10 Snow
23:00 -2.6 -3.1 96   17 32 2.4 100.17   -10 Snow

Notes on Data Quality.

Legend

  • E = Estimated
  • M = Missing
  • NA = Not Available*
  • [empty] = Indicates an unobserved value
Date modified: